Starlink 32189

operational
NORAD ID: 60317 Int'l Des: 2024-133 Owner: SPXS Country: US Constellation: starlink
LEOCIRCULAR

关于 Starlink 32189

正在加载描述...

实时位置

正在加载3D地球...

即将过境

高度历史

Altitude vs Time

uPlot chart will show altitude changes over time

两行轨道根数

1 60317U 24133S 26038.27376317 -.00001588 00000-0 -41531-4 0 9997
2 60317 53.1612 78.3306 0001183 101.2971 258.8162 15.30178815 87071
Epoch: Feb 7, 2026 • Age: 10 hours

当前状态

高度 477.0 km
速度 7.63 km/s
星下点 32.38°N, 84.51°E
发射日期 Jul 28, 2024
运行时间 1.5 years
类型 internet

技术详情

分类 Payload
质量 730.00 kg
干质量 700.00 kg
总质量 730.00 kg
长度 0.30 m
直径 4.10 m
跨度 29.00 m
形状 Box + pan
制造商 SPXS
平台类型 Starlink V2M
阶段状态 In Orbit
所有者/国家 SPXS/US

大型星座

Loading constellations...